This demonstration page uses our WeatherBlox Daily Observations layout. Learn more.

Left ArrowRight Arrow

36.17497, -115.13722

Hourly Observations for January 19, 2017

Temp ( °F °C ) Dew Point ( °F °C ) Humidity (%) Winds ( mph kmh ) Pressure ( in mb ) Visibility ( mi km ) Precip ( " mm )
12:53 am 00:53 Clear 49 9.4 36 2.2 61 61 S 16 26 29.91 1013 10 16 N/A
1:53 am 01:53 Cloudy 49 9.4 37 2.8 64 64 S 17 28 29.90 1013 10 16 N/A
2:53 am 02:53 Cloudy 50 10 37 2.8 61 61 S 13 20 29.90 1013 10 16 N/A
3:53 am 03:53 Cloudy 50 10 37 2.8 61 61 S 13 20 29.88 1012 10 16 N/A
4:53 am 04:53 Cloudy 50 10 37 2.8 61 61 ESE 9 15 29.86 1011 10 16 N/A
5:53 am 05:53 Cloudy 51 10.6 38 3.3 61 61 S 12 19 29.88 1012 10 16 N/A
6:53 am 06:53 Cloudy 50 10 37 2.8 61 61 SSW 14 22 29.87 1012 10 16 N/A
7:53 am 07:53 Partly Cloudy 50 10 37 2.8 61 61 S 13 20 29.88 1012 10 16 N/A
8:53 am 08:53 Mostly Sunny 50 10 38 3.3 63 63 S 12 19 29.88 1012 10 16 N/A
9:53 am 09:53 Mostly Sunny 52 11.1 38 3.3 59 59 S 14 22 29.87 1012 10 16 N/A
10:53 am 10:53 Cloudy 53 11.7 41 5 64 64 S 16 26 29.85 1011 10 16 N/A
11:53 am 11:53 Mostly Cloudy 52 11.1 38 3.3 59 59 SSW 15 24 29.81 1010 10 16 N/A
12:53 pm 12:53 Mostly Cloudy 54 12.2 39 3.9 57 57 SSE 13 20 29.78 1009 10 16 N/A
1:53 pm 13:53 Mostly Cloudy 55 12.8 35 1.7 47 47 W 16 26 29.77 1008 10 16 N/A
2:53 pm 14:53 Sunny 54 12.2 34 1.1 47 47 WSW 16 26 29.76 1008 10 16 N/A
3:53 pm 15:53 Partly Cloudy 53 11.7 35 1.7 51 51 WSW 14 22 29.76 1008 10 16 N/A
4:53 pm 16:53 Sunny 52 11.1 34 1.1 50 50 WSW 3 6 29.78 1008 10 16 N/A
5:53 pm 17:53 Cloudy 52 11.1 37 2.8 57 57 W 3 6 29.79 1009 10 16 N/A
6:53 pm 18:53 Mostly Cloudy 49 9.4 42 5.6 77 77 NNE 6 9 29.80 1009 10 16 N/A
7:53 pm 19:53 Mostly Cloudy 48 8.9 41 5 77 77 ENE 3 6 29.80 1009 10 16 N/A
8:53 pm 20:53 Clear 46 7.8 42 5.6 86 86 E 7 11 29.81 1009 10 16 N/A
9:53 pm 21:53 Clear 45 7.2 41 5 86 86 E 3 6 29.79 1009 10 16 N/A
10:53 pm 22:53 Clear 44 6.7 41 5 89 89 N N/A 29.78 1009 10 16 N/A
11:53 pm 23:53 Clear 44 6.7 42 5.6 93 93 N N/A 29.77 1008 10 16 N/A

Powered by AerisWeather